Theta_e
332 336 336 337 337 324 319 325 328 332 332 326 323 324 333 337 336 335 336 336 336 334 328 322 318 316 315 312 316 325 330 329 329 330 333 322 322 329 331 332 330 329 328
333 335 336 337 335 330 320 331 332 330 331 326 322 320 330 335 334 334 334 335 328 326 323 320 320 319 318 314 315 323 329 328 329 330 331 334 325 318 315 320 326 326 328
335 335 337 336 337 335 331 329 329 328 330 328 323 319 319 324 326 324 329 334 335 325 321 322 319 316 316 313 314 322 326 332 331 330 331 331 335 329 325 322 318 315 315
333 336 336 337 338 336 338 330 333 332 331 328 326 322 322 325 326 322 333 338 334 325 325 322 320 319 315 313 313 320 322 331 332 330 331 329 331 335 329 324 320 315 314
333 335 337 339 340 337 336 336 334 333 331 327 326 327 327 326 331 328 337 338 335 327 328 325 322 320 318 316 312 314 320 331 331 330 327 327 330 332 330 325 324 315 316
331 332 332 338 340 338 337 337 337 335 336 334 329 327 331 333 328 333 332 336 337 332 329 330 324 324 320 319 316 321 328 328 329 330 327 323 330 332 329 327 329 323 320
330 331 331 333 336 338 338 337 337 338 337 337 332 331 333 335 331 330 333 336 337 334 331 330 330 326 325 322 319 319 323 325 322 328 319 313 326 330 329 323 322 327 322
332 331 332 334 336 336 337 336 338 338 337 336 332 329 329 332 333 333 329 336 337 335 335 332 329 330 327 326 324 323 327 327 325 327 322 312 317 325 331 321 319 321 324
331 330 331 332 335 336 336 335 335 336 337 336 335 333 332 332 331 332 331 327 335 337 336 336 332 329 329 328 327 324 328 329 327 327 320 323 312 317 322 321 325 320 319
329 330 330 329 332 334 335 336 335 336 336 336 336 335 335 333 332 330 330 328 326 331 336 335 336 334 331 330 329 327 331 331 330 329 322 324 320 320 321 326 326 327 326
326 330 328 328 328 331 334 335 336 336 336 336 335 334 333 334 334 333 328 329 327 327 331 336 336 335 334 333 332 330 332 332 331 331 328 316 328 322 321 326 330 328 327
325 326 327 326 326 326 329 331 333 334 334 334 333 333 333 333 334 334 333 330 329 327 328 332 333 333 333 334 334 332 333 333 332 331 328 321 323 325 318 323 324 326 327
321 324 323 324 327 325 324 327 330 331 332 332 332 332 332 333 333 334 333 333 332 330 328 328 333 333 334 335 336 334 334 333 334 333 329 327 321 318 321 320 320 320 324
310 317 315 317 322 324 327 325 326 328 330 331 331 331 332 332 333 332 333 333 333 332 331 328 328 335 334 334 334 333 333 333 333 333 332 329 327 326 320 322 322 322 322
310 313 313 315 317 319 322 321 320 325 326 326 328 329 330 332 333 333 332 333 332 332 332 330 328 328 331 334 334 333 333 333 332 332 334 332 328 327 327 323 322 321 323
300 301 305 311 310 313 318 317 319 316 319 323 326 323 327 329 330 331 331 332 332 332 331 331 330 328 328 329 333 333 332 331 329 330 330 334 331 327 328 328 327 325 326
299 300 299 299 301 301 304 308 312 310 310 312 317 312 319 323 326 328 329 330 330 330 331 332 331 330 330 330 328 328 327 328 328 327 327 327 332 332 327 328 328 328 328
297 297 297 298 299 298 299 300 304 306 305 303 306 304 307 311 313 317 321 324 325 326 329 330 330 329 329 330 331 331 331 331 331 330 328 327 327 330 330 328 328 328 328
296 295 294 294 295 295 295 294 295 296 299 297 299 299 299 301 302 303 305 308 312 314 317 319 322 324 326 326 326 325 323 322 323 325 329 329 327 327 330 330 329 327 328
295 295 293 293 293 293 293 293 293 294 296 297 296 296 296 297 297 298 298 299 300 301 301 300 302 302 304 305 306 306 307 307 309 311 314 319 326 327 326 328 330 330 328
295 293 293 293 292 291 291 292 292 292 293 293 294 294 295 295 296 296 297 297 297 299 299 298 299 299 300 300 301 301 301 302 302 302 305 311 316 322 326 327 334 331 331
293 293 292 291 291 290 290 291 292 292 292 292 292 293 293 294 294 295 295 296 297 297 297 297 298 298 299 299 300 300 301 304 305 304 302 301 308 317 319 322 326 329 329
292 292 293 292 291 290 290 290 290 290 290 291 291 292 292 293 293 293 294 294 294 295 296 296 297 297 298 298 298 299 301 304 310 307 307 306 309 318 321 323 323 325 326
292 291 291 291 290 290 290 290 289 290 290 291 291 291 291 291 292 292 293 293 293 293 294 295 294 296 296 297 297 297 297 301 301 304 304 308 312 317 317 320 319 322 324
292 291 291 290 290 289 290 290 290 290 290 290 290 290 290 290 290 291 291 292 292 292 293 293 294 294 294 295 296 296 296 296 296 297 300 303 302 305 309 309 310 315 319
292 291 290 289 289 289 289 289 290 290 290 290 289 289 289 289 290 290 290 290 291 291 292 292 292 293 293 294 294 295 295 296 297 297 297 298 298 299 299 300 303 310 313
Wind_Speed
13 17 17 17 16 16 14 13 13 12 11 11 12 13 13 13 13 13 13 12 9 7 7 8 10 11 12 14 16 18 20 20 21 21 21 20 18 16 15 15 16 17 16
17 18 15 18 17 15 13 13 13 12 11 12 11 12 13 14 14 14 13 8 6 8 9 10 11 11 11 13 15 18 20 23 24 21 18 18 18 17 14 13 14 14 15
21 17 16 19 18 16 14 14 14 14 12 12 12 12 12 12 11 10 12 10 8 8 12 12 12 13 12 13 15 17 21 23 21 18 15 12 16 17 18 16 15 13 13
21 17 17 18 18 17 17 17 16 15 12 12 12 12 12 12 11 12 12 10 9 10 12 13 14 14 14 13 14 16 20 21 17 14 11 7 14 16 17 18 18 17 16
19 20 19 18 17 17 18 17 18 16 13 12 13 13 12 12 12 12 11 10 9 11 11 12 14 15 15 16 15 15 17 20 18 14 5 10 15 16 15 18 19 19 19
19 20 16 23 25 20 20 19 17 17 16 15 14 14 13 10 12 12 12 10 10 9 10 11 12 14 15 16 17 17 18 14 15 9 10 10 14 14 16 18 18 19 18
21 19 23 25 30 28 25 22 20 18 18 18 18 16 14 11 11 11 12 11 11 9 8 9 9 11 12 14 15 15 15 16 11 8 11 9 11 14 13 15 16 18 18
26 23 21 24 32 34 30 26 22 19 18 14 11 12 12 11 11 11 11 12 11 9 8 7 7 7 9 10 12 14 16 15 14 14 14 13 9 10 14 14 14 15 16
28 25 23 23 21 25 24 22 20 17 16 14 11 9 7 6 7 10 9 9 10 10 9 7 6 5 5 7 9 12 14 16 16 8 9 11 11 8 9 13 15 15 14
25 28 27 24 24 21 18 18 19 20 18 15 13 10 8 8 7 8 8 8 7 8 8 7 6 4 3 3 5 9 14 14 11 7 9 7 11 11 10 10 12 14 15
24 30 29 30 23 22 21 21 22 22 20 17 14 13 12 13 11 8 10 9 8 7 8 8 7 5 3 1 2 5 10 13 4 5 8 7 7 7 7 10 9 11 13
31 29 28 32 28 23 20 20 20 19 18 18 16 14 16 15 14 11 10 11 11 10 9 9 8 6 3 2 1 3 6 8 2 4 5 7 4 5 6 7 6 8 10
30 34 30 29 30 27 20 20 19 18 19 19 18 18 18 16 15 14 14 14 13 14 13 11 9 9 7 4 2 3 6 5 4 4 4 5 6 3 3 5 6 5 6
26 27 25 25 29 29 27 21 20 19 18 18 19 19 18 17 17 15 13 14 14 14 14 14 14 13 13 12 7 6 6 4 5 1 4 3 2 3 3 2 3 5 6
24 24 25 21 21 24 24 22 20 20 21 18 17 17 18 17 17 17 17 14 12 14 14 14 14 14 14 15 13 10 6 7 9 6 2 4 4 3 2 2 3 2 3
21 21 21 21 20 21 22 22 21 18 19 21 19 16 17 16 16 16 15 15 14 15 14 15 13 13 13 14 15 13 12 11 8 9 8 4 5 6 5 3 3 3 2
18 17 16 16 18 17 17 19 19 17 16 15 16 15 15 14 16 16 16 15 16 16 15 17 19 17 16 15 14 14 15 14 12 11 9 10 7 7 8 7 6 4 4
14 15 16 16 15 14 14 13 13 16 16 12 13 12 11 12 12 14 15 15 16 15 14 16 17 17 18 19 19 20 19 18 16 14 13 13 11 10 11 9 9 8 7
15 15 14 13 14 13 14 13 12 13 10 15 13 13 12 12 12 12 13 14 14 14 14 15 15 15 17 17 16 16 16 16 16 17 17 15 14 14 14 13 11 11 10
15 15 14 13 12 12 12 12 12 12 14 14 13 12 11 11 11 12 12 13 13 13 14 14 15 15 17 17 16 17 17 16 16 17 17 17 16 15 15 14 15 13 12
14 13 13 12 11 11 11 10 10 9 10 10 10 9 10 11 11 11 12 12 12 14 13 13 13 13 14 14 14 14 12 12 12 15 16 17 16 15 16 14 10 14 14
14 15 13 11 11 11 11 10 9 8 6 6 7 7 9 9 10 10 11 12 12 13 12 11 11 10 11 11 9 9 4 5 6 7 10 13 13 12 13 14 16 14 13
13 14 14 12 11 9 8 7 6 6 6 6 7 6 7 7 8 9 9 9 10 10 10 10 10 10 10 9 8 7 3 4 3 3 3 8 12 14 17 14 13 17 18
12 13 14 13 11 10 8 7 6 6 6 6 5 5 6 6 6 7 8 8 9 9 9 9 9 9 9 9 9 8 9 8 4 4 4 10 11 18 21 20 18 16 18
17 16 14 13 11 9 9 8 8 6 5 5 5 5 4 5 5 6 6 7 8 8 9 9 9 9 9 9 9 9 8 8 8 10 8 9 10 11 15 15 15 19 23
20 19 15 13 11 9 8 8 7 6 5 5 4 4 4 4 4 4 5 6 7 7 7 8 9 9 9 9 9 9 9 8 9 10 12 15 17 16 16 15 14 14 14
Wind_Direction
190 182 180 172 162 152 161 165 171 171 164 155 147 142 142 140 133 126 118 117 111 100 95 96 90 88 86 86 90 91 87 78 70 63 58 63 69 74 70 66 62 58 58
181 186 175 174 164 156 157 155 155 159 162 157 147 146 147 140 135 127 119 115 108 92 100 91 85 81 86 92 94 95 88 77 72 60 48 45 66 68 66 60 58 58 60
166 173 173 173 164 161 163 156 149 160 165 157 151 147 147 156 155 150 138 134 111 96 100 87 76 74 84 94 99 97 92 83 81 71 60 39 63 64 65 58 56 56 51
161 164 167 165 169 171 166 161 157 159 160 157 149 144 148 150 144 150 142 134 117 107 98 88 81 75 74 79 94 95 95 85 80 79 99 70 65 60 63 58 54 55 54
148 148 135 165 151 167 172 164 164 160 158 156 154 151 149 158 153 154 154 138 127 116 103 92 86 79 76 74 85 88 96 89 70 58 87 88 75 65 60 57 56 57 60
154 137 119 139 140 145 162 165 164 163 148 149 153 159 159 160 163 158 157 150 144 128 114 100 94 86 80 79 83 88 83 82 98 72 46 105 82 69 65 59 56 60 62
167 162 152 149 141 143 153 167 171 159 164 154 156 152 158 170 164 160 158 154 157 146 132 116 104 95 87 83 83 85 87 69 91 89 54 97 92 72 64 63 58 57 62
186 183 178 179 162 158 164 169 169 173 171 166 164 172 173 178 170 172 168 165 158 157 153 138 119 110 97 87 82 80 84 75 65 54 63 77 99 83 66 62 58 56 56
196 194 196 192 185 172 183 186 189 196 190 180 174 170 185 193 185 179 181 182 177 175 168 159 146 129 116 95 85 83 80 65 62 81 47 68 86 93 67 57 57 54 52
209 206 211 209 197 200 187 194 198 202 211 209 202 200 215 221 209 186 180 183 190 191 183 180 170 154 150 127 93 87 84 75 63 24 35 73 87 89 83 68 57 58 52
207 215 218 225 207 206 202 201 200 201 204 209 213 220 226 237 219 197 185 182 183 186 188 197 197 193 175 121 97 91 93 83 9 8 19 51 83 83 90 86 74 61 55
202 207 224 230 234 227 216 211 210 209 210 214 221 229 243 246 239 213 195 192 190 188 193 196 207 206 195 152 94 156 106 96 19 339 16 33 88 76 65 85 81 76 69
200 205 208 225 239 244 233 224 219 217 212 215 221 233 242 239 233 228 205 200 203 206 195 196 201 203 165 227 167 152 137 146 105 310 355 13 37 45 63 65 59 70 76
210 209 221 220 234 230 239 232 229 222 219 219 222 229 236 234 229 228 224 217 208 212 215 205 202 191 199 193 199 232 213 192 172 242 304 322 343 29 35 12 40 51 51
215 217 224 224 231 230 228 231 229 227 220 217 219 222 225 227 225 226 225 224 223 225 219 218 220 214 209 214 214 210 219 236 206 199 260 300 285 296 351 24 343 12 54
204 205 205 213 221 228 227 230 226 221 227 225 225 219 222 214 217 222 225 224 233 234 229 233 227 225 229 226 223 226 241 252 249 228 231 261 271 261 267 286 331 352 355
207 205 201 202 208 215 221 227 221 223 216 215 212 220 218 218 220 225 229 232 236 236 229 235 241 240 235 230 231 241 246 253 258 258 245 246 266 271 253 255 268 291 319
203 198 201 202 206 206 214 220 235 229 203 216 213 215 213 221 224 228 231 232 232 230 230 235 235 234 238 244 242 247 250 250 257 260 259 255 249 257 260 252 256 268 284
200 199 200 202 201 203 202 204 204 212 202 215 215 215 215 218 224 233 234 234 233 237 233 233 236 238 242 243 246 251 255 253 253 256 258 257 251 244 249 261 255 254 266
198 197 201 198 198 198 203 200 203 205 207 216 216 211 209 214 221 226 230 232 229 235 237 235 238 242 247 253 256 259 260 261 258 257 254 254 254 254 257 254 257 259 259
196 197 200 200 198 195 196 198 205 210 209 204 207 212 215 217 218 224 228 230 225 229 234 237 236 240 249 258 263 266 269 264 260 257 252 248 249 248 251 248 252 259 262
198 194 198 199 196 198 201 202 204 209 220 214 213 214 219 221 222 220 222 227 231 232 231 234 239 242 248 252 261 271 261 255 245 256 256 244 242 241 250 246 242 243 246
202 197 197 201 203 207 208 209 207 203 210 213 212 221 226 223 227 225 230 232 234 236 239 240 241 242 244 248 248 230 204 192 190 255 239 215 216 214 223 225 237 235 238
210 206 199 199 200 201 201 195 189 201 211 222 227 223 227 221 222 230 235 238 238 235 234 236 238 242 242 244 241 235 230 229 207 174 204 228 225 229 235 227 233 239 235
204 213 205 199 195 192 197 197 204 211 223 221 228 234 231 234 229 229 228 236 237 238 236 238 240 239 241 245 247 240 236 237 244 236 218 235 238 240 246 247 252 250 247
209 212 203 198 197 196 193 194 198 199 204 202 215 225 238 242 236 238 239 239 242 247 248 245 246 244 244 242 242 245 240 234 233 241 247 259 265 258 263 270 264 257 253